Weather History for Fort Meade, MD

Change the Weather History Date:

Wednesday, April 10, 2013

  Actual Average (KBWI) Record (KBWI)
Temperature  
Mean Temperature 72 °F 52 °F  
Max Temperature 91 °F 63 °F 91 °F (2013)
Min Temperature 53 °F 41 °F 22 °F (1985)
Degree Days  
Heating Degree Days 0 13  
Month to date heating degree days 148  
Since 1 July heating degree days 4409  
Cooling Degree Days 7 0  
Month to date cooling degree days 0  
Year to date cooling degree days 1  
Growing Degree Days 22 (Base 50)    
Moisture  
Dew Point 51 °F    
Average Humidity 50    
Maximum Humidity 88    
Minimum Humidity 24    
Precipitation  
Precipitation 0.00 in 0.10 in 1.27 in (1894)
Month to date precipitation 1.14  
Year to date precipitation 10.99  
Snow  
Snow 0.00 in 0.00 in 3.00 in (1894)
Month to date snowfall 0.0  
Since 1 July snowfall 20.1  
Snow Depth -    
Sea Level Pressure  
Sea Level Pressure 29.90 in    
Wind  
Wind Speed 6 mph (SW)    
Max Wind Speed 16 mph    
Max Gust Speed 24 mph    
Visibility 10 miles    
Events      
T = Trace of Precipitation, MM = Missing Value Source: NWS Daily Summary

Daily Weather History Graph

Daily Weather History Graph

Search for Another Location

Airport:

Trip Planner

Search our weather history database for the weather conditions in past years. The results will help you decide how hot, cold, wet, or windy it might be!

Date:

Astronomy

Apr. 10, 2013 Rise Set
Actual Time 6:37 AM EDT 7:39 PM EDT
Civil Twilight 6:10 AM EDT 8:07 PM EDT
Nautical Twilight 5:37 AM EDT 8:39 PM EDT
Astronomical Twilight 5:03 AM EDT 9:13 PM EDT
Moon 6:32 AM EDT (4/10) 8:12 PM EDT (4/10)
Length of Visible Light 13h 57m
Length of Day
13h 02m
New Moon, 0% of the Moon is Illuminated
Apr 10
New Moon
Apr 18
First Quarter
Apr 25
Full
May 2
Last Quarter
May 9
New

Hourly Weather History & Observations

Time (EDT) Temp. Dew Point Humidity Pressure Visibility Wind Dir Wind Speed Gust Speed Precip Events Conditions
12:00 AM 59.0 °F 50.0 °F 72% 29.94 in 10.0 mi South 3.5 mph - N/A   Clear
12:18 AM 59.0 °F 51.8 °F 77% 29.93 in 10.0 mi South 3.5 mph - N/A   Clear
12:39 AM 59.0 °F 51.8 °F 77% 29.93 in 10.0 mi SW 3.5 mph - N/A   Clear
1:00 AM 59.0 °F 51.8 °F 77% 29.93 in 10.0 mi SW 5.8 mph - N/A   Clear
1:21 AM 62.6 °F 51.8 °F 68% 29.93 in 10.0 mi SW 8.1 mph - N/A   Clear
1:39 AM 64.4 °F 51.8 °F 64% 29.93 in 10.0 mi SW 9.2 mph - N/A   Clear
2:00 AM 66.2 °F 51.8 °F 60% 29.93 in 10.0 mi SW 6.9 mph - N/A   Clear
2:21 AM 64.4 °F 51.8 °F 64% 29.92 in 10.0 mi SW 6.9 mph - N/A   Clear
2:39 AM 64.4 °F 51.8 °F 64% 29.92 in 10.0 mi SW 6.9 mph - N/A   Clear
3:00 AM 62.6 °F 51.8 °F 68% 29.92 in 10.0 mi SW 5.8 mph - N/A   Clear
3:21 AM 62.6 °F 51.8 °F 68% 29.92 in 10.0 mi SW 5.8 mph - N/A   Clear
3:39 AM 62.6 °F 51.8 °F 68% 29.93 in 10.0 mi SW 5.8 mph - N/A   Clear
4:00 AM 60.8 °F 51.8 °F 72% 29.93 in 10.0 mi SW 4.6 mph - N/A   Clear
4:21 AM 59.0 °F 50.0 °F 72% 29.94 in 10.0 mi SW 3.5 mph - N/A   Clear
4:39 AM 59.0 °F 51.8 °F 77% 29.94 in 10.0 mi WSW 3.5 mph - N/A   Clear
5:00 AM 55.4 °F 50.0 °F 82% 29.95 in 10.0 mi West 3.5 mph - N/A   Clear
5:21 AM 55.4 °F 50.0 °F 82% 29.95 in 10.0 mi WSW 4.6 mph - N/A   Clear
5:39 AM 53.6 °F 50.0 °F 88% 29.95 in 10.0 mi WSW 4.6 mph - N/A   Clear
6:00 AM 55.4 °F 51.8 °F 88% 29.96 in 10.0 mi WSW 4.6 mph - N/A   Clear
6:21 AM 55.4 °F 50.0 °F 82% 29.96 in 10.0 mi Calm Calm - N/A   Clear
6:39 AM 55.4 °F 50.0 °F 82% 29.97 in 10.0 mi Calm Calm - N/A   Clear
7:00 AM 57.2 °F 50.0 °F 77% 29.97 in 10.0 mi Calm Calm - N/A   Clear
7:21 AM 55.4 °F 50.0 °F 82% 29.98 in 10.0 mi Calm Calm - N/A   Clear
7:39 AM 59.0 °F 50.0 °F 72% 29.98 in 10.0 mi Calm Calm - N/A   Clear
8:00 AM 60.8 °F 51.8 °F 72% 29.99 in 10.0 mi SSW 5.8 mph - N/A   Clear
8:21 AM 68.0 °F 51.8 °F 56% 29.98 in 10.0 mi WSW 6.9 mph - N/A   Clear
8:39 AM 69.8 °F 51.8 °F 53% 29.98 in 10.0 mi SW 6.9 mph - N/A   Clear
9:00 AM 73.4 °F 51.8 °F 47% 29.98 in 10.0 mi WSW 5.8 mph - N/A   Clear
9:21 AM 77.0 °F 50.0 °F 39% 29.98 in 10.0 mi WSW 8.1 mph - N/A   Clear
9:42 AM 78.8 °F 48.2 °F 34% 29.97 in 10.0 mi West 8.1 mph - N/A   Clear
10:00 AM 80.6 °F 50.0 °F 34% 29.97 in 10.0 mi West 11.5 mph 16.1 mph N/A   Clear
10:21 AM 80.6 °F 50.0 °F 34% 29.97 in 10.0 mi West 12.7 mph - N/A   Clear
11:00 AM 86.0 °F 50.0 °F 29% 29.96 in 10.0 mi West 16.1 mph 23.0 mph N/A   Clear
11:21 AM 86.0 °F 51.8 °F 31% 29.96 in 10.0 mi West 13.8 mph 18.4 mph N/A   Clear
11:42 AM 86.0 °F 51.8 °F 31% 29.95 in 10.0 mi WNW 13.8 mph 21.9 mph N/A   Clear
12:00 PM 87.8 °F 51.8 °F 29% 29.95 in 10.0 mi West 11.5 mph 23.0 mph N/A   Clear
12:21 PM 87.8 °F 50.0 °F 27% 29.95 in 10.0 mi West 12.7 mph 20.7 mph N/A   Clear
12:42 PM 87.8 °F 51.8 °F 29% 29.94 in 10.0 mi WNW 11.5 mph - N/A   Clear
1:00 PM 87.8 °F 51.8 °F 29% 29.93 in 10.0 mi West 11.5 mph 16.1 mph N/A   Clear
1:21 PM 87.8 °F 51.8 °F 29% 29.93 in 10.0 mi WSW 8.1 mph 17.3 mph N/A   Clear
1:42 PM 87.8 °F 51.8 °F 29% 29.92 in 10.0 mi WNW 10.4 mph 20.7 mph N/A   Clear
2:00 PM 89.6 °F 51.8 °F 27% 29.92 in 10.0 mi West 9.2 mph 24.2 mph N/A   Clear
3:00 PM 91.4 °F 51.8 °F 26% 29.90 in 10.0 mi WSW 12.7 mph 16.1 mph N/A   Scattered Clouds
3:21 PM 89.6 °F 50.0 °F 26% 29.88 in 10.0 mi SW 9.2 mph 19.6 mph N/A   Scattered Clouds
3:42 PM 89.6 °F 50.0 °F 26% 29.87 in 10.0 mi SW 10.4 mph 18.4 mph N/A   Scattered Clouds
4:00 PM 89.6 °F 50.0 °F 26% 29.86 in 10.0 mi SW 9.2 mph 19.6 mph N/A   Scattered Clouds
4:21 PM 89.6 °F 50.0 °F 26% 29.86 in 10.0 mi SW 12.7 mph 20.7 mph N/A   Scattered Clouds
4:42 PM 89.6 °F 48.2 °F 24% 29.85 in 10.0 mi SW 10.4 mph - N/A   Clear
5:00 PM 89.6 °F 50.0 °F 26% 29.84 in 10.0 mi SW 10.4 mph - N/A   Clear
5:21 PM 89.6 °F 48.2 °F 24% 29.85 in 10.0 mi SW 16.1 mph 19.6 mph N/A   Clear
5:42 PM 87.8 °F 48.2 °F 25% 29.84 in 10.0 mi South 11.5 mph 18.4 mph N/A   Clear
6:03 PM 87.8 °F 48.2 °F 25% 29.83 in 10.0 mi SSW 9.2 mph 16.1 mph N/A   Clear
6:21 PM 86.0 °F 48.2 °F 27% 29.82 in 10.0 mi SSW 6.9 mph 17.3 mph N/A   Clear
6:42 PM 86.0 °F 48.2 °F 27% 29.81 in 10.0 mi SSW 5.8 mph - N/A   Clear
7:03 PM 84.2 °F 48.2 °F 29% 29.81 in 10.0 mi SW 6.9 mph - N/A   Clear
7:21 PM 82.4 °F 48.2 °F 30% 29.81 in 10.0 mi SW 4.6 mph - N/A   Clear
7:42 PM 78.8 °F 50.0 °F 36% 29.80 in 10.0 mi SSW 3.5 mph - N/A   Clear
8:03 PM 77.0 °F 50.0 °F 39% 29.80 in 10.0 mi SSE 3.5 mph - N/A   Clear
8:21 PM 75.2 °F 50.0 °F 41% 29.80 in 10.0 mi Calm Calm - N/A   Clear
8:42 PM 73.4 °F 50.0 °F 44% 29.79 in 10.0 mi SE 4.6 mph - N/A   Clear
9:03 PM 73.4 °F 51.8 °F 47% 29.80 in 10.0 mi SE 3.5 mph - N/A   Clear
9:21 PM 71.6 °F 51.8 °F 50% 29.81 in 10.0 mi Calm Calm - N/A   Clear
9:42 PM 69.8 °F 51.8 °F 53% 29.82 in 10.0 mi Calm Calm - N/A   Scattered Clouds
10:03 PM 69.8 °F 51.8 °F 53% 29.82 in 10.0 mi South 3.5 mph - N/A   Mostly Cloudy
10:21 PM 69.8 °F 51.8 °F 53% 29.82 in 10.0 mi South 4.6 mph - N/A   Mostly Cloudy
10:42 PM 69.8 °F 51.8 °F 53% 29.82 in 10.0 mi SSW 4.6 mph - N/A   Clear
11:03 PM 71.6 °F 53.6 °F 53% 29.83 in 10.0 mi SW 6.9 mph - N/A   Clear
11:21 PM 73.4 °F 51.8 °F 47% 29.84 in 10.0 mi SW 8.1 mph - N/A   Clear
11:42 PM 73.4 °F 53.6 °F 50% 29.85 in 10.0 mi WSW 8.1 mph - N/A   Clear